Weather reports worldwide

Advertisment
Pershore, United Kingdom (3529): temperature & dewpoint: 11.10.2018 22:00:00 - 17.10.2018 22:00:00 (BST)Pershore, United Kingdom (3529): temperature -20cm & temperature -100cm: 11.10.2018 22:00:00 - 17.10.2018 22:00:00 (BST)Pershore, United Kingdom (3529): wind speed & gusts: 11.10.2018 22:00:00 - 17.10.2018 22:00:00 (BST)Pershore, United Kingdom (3529): wind direction: 11.10.2018 22:00:00 - 17.10.2018 22:00:00 (BST)Pershore, United Kingdom (3529): reduced air pressure: 11.10.2018 22:00:00 - 17.10.2018 22:00:00 (BST)Pershore, United Kingdom (3529): visibility: 11.10.2018 22:00:00 - 17.10.2018 22:00:00 (BST)Pershore, United Kingdom (3529): precipitation: 11.10.2018 22:00:00 - 17.10.2018 22:00:00 (BST)
Date & Time tt [°C] td [°C] tt -20cm [°C] tt -100cm [°C] ff [km/h] ff [kn] fx [km/h] fx [kn] dd ppp [hPa] vv [km] rr [mm]
17.10.2018 22:00:00 8,1 7,5 - - 5 3 - - NNW 1025,4 9 0,0
17.10.2018 21:00:00 8,3 7,1 - - 5 3 - - NW 1024,7 7 0,0
17.10.2018 20:00:00 9,9 8,5 - - 4 2 - - N 1023,9 14 0,0
17.10.2018 19:00:00 11,6 8,8 - - 5 3 - - NNW 1022,8 11 0,0
17.10.2018 18:00:00 14,3 9,6 - - 5 3 - - NNW 1021,9 14 0,0
17.10.2018 17:00:00 16,1 8,7 - - 8 4 - - N 1021,1 21 0,0
17.10.2018 16:00:00 16,4 9,0 - - 8 4 - - NNE 1020,7 19 0,0
17.10.2018 15:00:00 17,5 9,8 - - 8 4 - - NNW 1020,4 18 0,0
17.10.2018 14:00:00 16,9 10,3 - - 4 2 - - N 1020,0 14 0,0
17.10.2018 13:00:00 16,7 11,3 - - 4 2 - - N 1020,0 12 0,0
17.10.2018 12:00:00 14,7 11,4 - - 5 3 - - W 1019,9 16 0,0
17.10.2018 11:00:00 14,7 11,6 - - 5 3 - - WSW 1019,5 15 0,0
17.10.2018 10:00:00 12,6 12,0 13,4 14,4 2 1 - - SW 1019,1 11 0,0
17.10.2018 09:00:00 11,5 10,9 - - 2 1 - - SW 1018,5 8 0,0
17.10.2018 08:00:00 11,8 11,0 - - 5 3 - - SW 1017,7 8 0,0
17.10.2018 07:00:00 12,2 11,4 - - 8 4 - - SW 1017,2 11 0,0
17.10.2018 06:00:00 12,2 11,2 - - 9 5 - - SSW 1016,9 13 0,0
17.10.2018 05:00:00 12,3 10,8 - - 13 7 - - SSW 1016,5 25 0,0
17.10.2018 04:00:00 12,3 10,4 - - 11 6 - - SSW 1016,2 40 0,0
17.10.2018 03:00:00 12,4 10,2 - - 13 7 - - SSW 1016,2 40 0,0
17.10.2018 02:00:00 12,5 10,5 - - 11 6 - - S 1016,2 35 0,0
17.10.2018 01:00:00 12,4 10,9 - - 9 5 - - S 1016,4 30 0,0
17.10.2018 00:00:00 12,6 11,0 - - 13 7 - - SSW 1016,3 24 0,0
16.10.2018 23:00:00 12,4 11,3 - - 13 7 - - SSW 1016,4 28 0,0
16.10.2018 22:00:00 11,9 11,0 - - 9 5 - - SSW 1016,5 21 0,0
16.10.2018 21:00:00 12,1 11,1 - - 8 4 - - SSW 1016,2 26 0,0
16.10.2018 20:00:00 13,1 11,5 - - 13 7 - - S 1015,6 26 0,0
16.10.2018 19:00:00 13,7 11,5 - - 8 4 - - SSW 1015,5 20 0,0
16.10.2018 18:00:00 15,0 12,7 - - 5 3 - - SSW 1015,2 15 0,0
16.10.2018 17:00:00 15,8 13,4 - - 9 5 - - S 1014,9 14 0,0
16.10.2018 16:00:00 15,7 13,4 - - 13 7 - - S 1014,9 12 0,0
16.10.2018 15:00:00 15,8 13,8 - - 13 7 - - SSW 1015,1 11 0,0
16.10.2018 14:00:00 15,5 13,8 - - 9 5 - - SW 1015,0 11 0,0
16.10.2018 13:00:00 15,7 13,7 - - 11 6 - - SSW 1014,9 13 0,0
16.10.2018 12:00:00 14,9 13,5 - - 9 5 - - S 1015,3 25 0,0
16.10.2018 11:00:00 13,5 12,1 - - 2 1 - - W 1015,5 11 0,0
16.10.2018 10:00:00 13,7 12,4 13,2 14,5 9 5 - - S 1015,2 18 0,0
16.10.2018 09:00:00 11,4 11,1 - - 9 5 - - SE 1015,3 9 0,0
16.10.2018 08:00:00 11,3 10,9 - - 8 4 - - ESE 1015,2 5 0,0
16.10.2018 07:00:00 11,4 11,1 - - 9 5 - - SE 1015,3 5 0,0
16.10.2018 06:00:00 11,5 11,3 - - 0 0 - - N 1015,1 3,6 0,0
16.10.2018 05:00:00 11,6 11,2 - - 2 1 - - W 1014,9 4,7 0,0
16.10.2018 04:00:00 11,7 11,4 - - 2 1 - - SSE 1014,8 8 0,0
16.10.2018 03:00:00 11,6 11,3 - - 11 6 - - ESE 1015,0 4,3 0,0
16.10.2018 02:00:00 11,3 11,0 - - 8 4 - - E 1015,2 3,4 0,0
16.10.2018 01:00:00 11,3 10,9 - - 8 4 - - E 1015,3 4,4 0,0
16.10.2018 00:00:00 11,3 10,8 - - 8 4 - - E 1015,3 6 0,0
15.10.2018 23:00:00 11,2 10,7 - - 5 3 - - E 1015,6 10 0,0
15.10.2018 22:00:00 11,2 10,7 - - 8 4 - - NE 1015,5 7 0,0
15.10.2018 21:00:00 10,8 10,4 - - 4 2 - - N 1015,1 6 0,0
15.10.2018 20:00:00 10,7 10,2 - - 4 2 - - N 1014,9 5 0,0
15.10.2018 19:00:00 10,7 10,1 - - 8 4 - - ENE 1014,9 19 0,0
15.10.2018 18:00:00 10,7 10,2 - - 9 5 - - NE 1014,7 9 0,2
15.10.2018 17:00:00 10,7 10,3 - - 5 3 - - NNE 1014,3 5 0,0
15.10.2018 16:00:00 10,7 10,1 - - 9 5 - - NNE 1014,3 10 0,2
15.10.2018 15:00:00 10,6 10,1 - - 8 4 - - NNE 1013,4 6 0,4
15.10.2018 14:00:00 10,4 9,8 - - 8 4 - - NNE 1013,7 6 0,8
15.10.2018 13:00:00 10,2 9,7 - - 9 5 - - NE 1013,4 8 0,4
15.10.2018 12:00:00 9,7 9,2 - - 11 6 - - N 1013,5 3,7 0,6
15.10.2018 11:00:00 9,6 9,1 - - 13 7 - - N 1012,8 5 0,6
15.10.2018 10:00:00 9,5 8,9 13,7 14,5 13 7 - - N 1012,6 3,2 1,0
15.10.2018 09:00:00 9,4 8,8 - - 15 8 - - N 1012,1 4,2 0,4
15.10.2018 08:00:00 9,1 8,7 - - 13 7 - - N 1011,6 7 2,2
15.10.2018 07:00:00 9,2 8,5 - - 11 6 - - N 1011,6 4,8 0,6
15.10.2018 06:00:00 9,7 7,9 - - 11 6 - - N 1011,0 45 0,0
15.10.2018 05:00:00 9,5 7,8 - - 15 8 - - N 1010,3 40 0,0
15.10.2018 04:00:00 9,6 7,5 - - 11 6 - - N 1010,6 24 0,0
15.10.2018 03:00:00 9,5 7,5 - - 11 6 - - N 1011,4 40 0,0
15.10.2018 02:00:00 9,3 7,5 - - 9 5 - - N 1011,5 40 0,0
15.10.2018 01:00:00 9,2 7,3 - - 9 5 - - N 1011,1 24 0,0
15.10.2018 00:00:00 9,3 7,3 - - 9 5 - - NNE 1011,2 22 0,0
14.10.2018 23:00:00 9,2 7,2 - - 9 5 - - NNE 1011,1 30 0,0
14.10.2018 22:00:00 9,4 6,9 - - 8 4 - - N 1011,3 50 0,0
14.10.2018 21:00:00 9,4 7,1 - - 8 4 - - NNE 1011,3 50 0,0
14.10.2018 20:00:00 9,6 7,1 - - 8 4 - - NNE 1011,2 30 0,0
14.10.2018 19:00:00 9,8 7,1 - - 9 5 - - N 1011,0 45 0,0
14.10.2018 18:00:00 9,9 6,9 - - 9 5 - - NE 1009,9 40 0,0
14.10.2018 17:00:00 10,1 7,2 - - 9 5 - - NE 1009,4 50 0,0
14.10.2018 16:00:00 10,5 7,9 - - 8 4 - - NE 1009,2 50 0,0
14.10.2018 15:00:00 10,1 8,0 - - 11 6 - - NNE 1008,7 50 0,0
14.10.2018 14:00:00 9,9 7,9 - - 13 7 - - N 1008,7 22 1,2
14.10.2018 13:00:00 10,0 8,9 - - 11 6 - - NNW 1009,3 11 1,6
14.10.2018 12:00:00 10,2 9,2 - - 18 10 - - N 1008,2 27 2,2
14.10.2018 11:00:00 10,5 10,0 - - 13 7 - - N 1008,6 7 3,6
14.10.2018 10:00:00 10,9 10,5 14,9 14,4 11 6 - - NW 1008,5 4,2 2,0
14.10.2018 09:00:00 10,9 10,4 - - 11 6 - - NNW 1006,6 9 3,6
14.10.2018 08:00:00 11,0 10,2 - - 9 5 - - N 1006,7 11 1,0
14.10.2018 07:00:00 11,4 10,5 - - 9 5 - - NW 1006,5 30 1,8
14.10.2018 06:00:00 12,3 10,5 - - 11 6 - - WNW 1007,1 23 0,2
14.10.2018 05:00:00 13,3 12,0 - - 9 5 - - SW 1006,7 26 0,0
14.10.2018 04:00:00 13,8 11,9 - - 11 6 - - SSW 1006,3 35 0,0
14.10.2018 03:00:00 14,3 11,9 - - 16 9 - - SSW 1006,1 28 0,0
14.10.2018 02:00:00 15,0 11,9 - - 15 8 - - SSW 1005,9 30 0,0
14.10.2018 01:00:00 15,5 12,1 - - 16 9 - - SSW 1005,7 35 0,2
14.10.2018 00:00:00 15,7 12,7 - - 22 12 46 25 S 1005,7 12 0,0
13.10.2018 23:00:00 17,1 13,0 - - 29 16 48 26 S 1005,5 24 0,0
13.10.2018 22:00:00 18,2 13,7 - - 28 15 48 26 S 1005,1 22 0,0
13.10.2018 21:00:00 18,9 13,9 - - 31 17 54 29 S 1005,0 23 0,0
13.10.2018 20:00:00 19,9 14,7 - - 37 20 57 31 S 1004,5 29 0,0
13.10.2018 19:00:00 20,1 15,0 - - 31 17 59 32 S 1004,1 28 0,0
13.10.2018 18:00:00 20,4 15,4 - - 34 18 61 33 SSW 1003,4 35 0,0
13.10.2018 17:00:00 21,5 15,3 - - 35 19 59 32 S 1003,1 28 0,0
13.10.2018 16:00:00 22,1 15,2 - - 41 22 68 37 S 1002,9 45 0,0
13.10.2018 15:00:00 22,1 15,1 - - 41 22 70 38 S 1003,8 30 0,0
13.10.2018 14:00:00 21,7 15,6 - - 35 19 59 32 S 1004,2 35 0,0
13.10.2018 13:00:00 21,2 15,7 - - 35 19 61 33 S 1005,1 35 0,0
13.10.2018 12:00:00 20,9 16,7 - - 37 20 63 34 S 1005,7 13 0,0
13.10.2018 11:00:00 20,0 16,6 - - 41 22 61 33 S 1006,0 40 0,0
13.10.2018 10:00:00 17,7 16,6 14,4 14,4 31 17 50 27 S 1006,4 3,9 0,4
13.10.2018 09:00:00 18,0 15,8 - - 31 17 61 33 SSE 1006,2 30 0,0
13.10.2018 08:00:00 18,7 17,0 - - 31 17 54 29 S 1005,9 30 1,6
13.10.2018 07:00:00 18,5 16,6 - - 26 14 50 27 S 1005,8 45 0,0
13.10.2018 06:00:00 18,0 16,6 - - 28 15 52 28 S 1005,9 6 0,2
13.10.2018 05:00:00 19,3 16,9 - - 28 15 52 28 S 1006,0 40 0,0
13.10.2018 04:00:00 19,3 16,7 - - 26 14 50 27 S 1006,5 40 0,0
13.10.2018 03:00:00 19,3 16,5 - - 31 17 55 30 S 1006,6 50 0,0
13.10.2018 02:00:00 19,4 16,6 - - 26 14 50 27 S 1007,0 45 0,0
13.10.2018 01:00:00 19,0 16,6 - - 28 15 52 28 S 1006,8 30 0,0
13.10.2018 00:00:00 18,9 16,3 - - 34 18 55 30 S 1007,0 23 0,0
12.10.2018 23:00:00 19,0 16,2 - - 37 20 55 30 S 1006,9 26 0,2
12.10.2018 22:00:00 18,9 16,1 - - 35 19 54 29 S 1006,8 24 0,0
12.10.2018 21:00:00 18,2 16,1 - - 29 16 59 32 S 1006,4 19 0,2
12.10.2018 20:00:00 18,7 15,6 - - 37 20 59 32 S 1005,9 23 0,0
12.10.2018 19:00:00 18,5 15,5 - - 37 20 61 33 S 1005,6 17 0,0
12.10.2018 18:00:00 18,8 15,1 - - 39 21 72 39 S 1004,7 30 0,0
12.10.2018 17:00:00 19,0 15,1 - - 42 23 72 39 S 1004,0 18 0,0
12.10.2018 16:00:00 18,9 14,7 - - 42 23 68 37 S 1004,2 30 0,0
12.10.2018 15:00:00 17,9 14,3 - - 44 24 74 40 S 1004,2 30 0,0
12.10.2018 14:00:00 17,4 13,7 - - 37 20 65 35 S 1004,4 30 0,2
12.10.2018 13:00:00 16,0 14,0 - - 37 20 61 33 S 1004,7 8 1,4
12.10.2018 12:00:00 15,6 14,0 - - 37 20 61 33 S 1004,7 6 3,0
12.10.2018 11:00:00 15,5 14,1 - - 29 16 57 31 S 1005,1 6 2,0
12.10.2018 10:00:00 15,6 13,8 13,7 14,4 31 17 65 35 S 1004,9 11 0,0
12.10.2018 09:00:00 15,6 13,3 - - 34 18 52 28 S 1004,1 30 0,2
12.10.2018 08:00:00 14,9 12,8 - - 34 18 55 30 S 1004,1 19 0,8
12.10.2018 07:00:00 14,4 12,1 - - 35 19 54 29 S 1003,8 8 0,2
12.10.2018 06:00:00 15,1 11,1 - - 29 16 54 29 S 1003,6 21 0,0
12.10.2018 05:00:00 14,2 10,6 - - 29 16 54 29 SSE 1003,8 27 0,0
12.10.2018 04:00:00 13,8 10,0 - - 28 15 46 25 SSE 1004,1 30 0,0
12.10.2018 03:00:00 13,6 10,2 - - 22 12 - - S 1004,9 30 0,0
12.10.2018 02:00:00 13,7 10,6 - - 16 9 - - S 1005,6 30 0,0
12.10.2018 01:00:00 13,2 11,1 - - 16 9 - - S 1005,3 21 0,0
12.10.2018 00:00:00 13,1 10,6 - - 15 8 - - SSE 1005,0 26 0,0
11.10.2018 23:00:00 12,6 10,7 - - 5 3 - - SSW 1005,3 30 0,0
11.10.2018 22:00:00 14,0 10,7 - - 11 6 - - SSW 1005,0 30 0,0

tt = temperature
td = dewpoint
tt -20cm = temperature -20cm
tt -100cm = temperature -100cm
ff = wind speed
fx = gusts
dd = wind direction
ppp = reduced air pressure
vv = visibility
rr = precipitation

Next stations